Location: Shell Point
(30.0571°N, 84.2896°W)
Time: 12:26:04
(UTC-05:00)

Daily predictions for brighter satellites

Satellite Brightness Start Highest point End
(mag) Time Altitude Azimuth Time Altitude Azimuth Time Altitude Azimuth
Cosmos 1538 Rocket 4.0 18:22:16 10° S 18:27:31 75° ESE 18:32:51 10° NNE
MOS 1 4.5 18:23:00 10° SSE 18:28:39 83° WSW 18:34:20 10° NNW
SKYMED 2 3.6 18:24:35 10° NNE 18:28:53 63° E 18:33:10 10° S
Sich 1 3.6 18:25:42 10° SSE 18:29:48 39° E 18:33:56 10° NNE
SPOT 3 Rocket 3.7 18:26:44 10° S 18:31:52 80° WSW 18:37:03 10° NNW
MSX 3.9 18:26:42 10° SSE 18:32:25 88° ENE 18:38:10 10° NNW
Cosmos 1703 3.2 18:29:18 10° S 18:33:10 74° E 18:37:03 10° N
Thor Agena Rocket 4.4 18:28:07 10° N 18:33:11 54° WNW 18:38:10 10° SSW
Coronas F rocket 2.4 18:32:59 10° SE 18:34:50 20° E 18:36:43 10° NE
Milstar 3 3.5 18:28:19 10° W 18:35:18 54° SSW 18:41:59 10° ESE
Cosmos 2237 Rocket 4.4 18:34:54 10° WSW 18:39:18 23° WNW 18:43:44 10° N
Cosmos 1680 Rocket 4.3 18:37:01 10° SSE 18:41:28 29° E 18:45:58 10° NE
Cosmos 1633 Rocket 3.3 18:37:24 10° SSE 18:41:37 47° E 18:45:50 10° NNE
SJ-6B 4.3 18:38:50 10° ESE 18:41:40 18° ENE 18:44:32 10° NNE
Cosmos 2180 Rocket 4.5 18:36:20 10° N 18:42:30 67° E 18:48:42 10° SSE
Meteor 2-10 4.1 18:38:49 10° N 18:44:01 86° W 18:49:23 10° S
Cosmos 1300 4.3 18:40:26 10° NNW 18:44:02 40° W 18:47:37 10° SSW
NOSS 3-1 (C) 4.3 18:40:25 10° SSE 18:45:02 27° ESE 18:49:55 10° NE
CZ-4 R/B 3.7 18:42:14 10° SSW 18:45:35 28° W 18:48:59 10° NW
Delta 2 Rocket 3.1 18:42:39 10° SW 18:45:57 53° SSE 18:48:47 13° ENE
Timation 1 Rocket 4.3 18:40:29 10° NNW 18:46:30 70° ENE 18:52:27 10° SSE
Cosmos 1092 Rocket 4.4 18:41:24 10° SSE 18:47:16 42° E 18:53:10 10° NNE
SL-16 R/B 3.2 18:42:50 10° SW 18:48:17 49° WNW 18:53:45 10° N
OAO 1 Rocket 4.4 18:48:04 10° WNW 18:53:23 89° NNE 18:58:42 10° ESE
Centaur AC-72 4.0 18:48:13 10° WSW 18:53:36 39° S 19:02:57 10° ESE
CZ-3C R/B 4.3 18:45:14 10° SW 18:55:59 16° S 19:00:30 10° SSE
Cosmos 1900 4.3 18:52:09 10° NNW 18:57:07 67° ENE 19:02:06 10° SSE
Intelsat 5-1 Rocket 3.1 18:55:43 10° SW 18:57:44 22° S 19:00:40 10° SE
Cosmos 773 Rocket 4.1 18:53:44 10° SSW 18:58:52 82° WNW 19:04:05 10° NNE
ALOS 3.5 18:56:12 10° ESE 18:59:26 19° ENE 19:02:39 10° NNE
Cosmos 1484 Rocket 3.5 18:57:04 10° S 19:00:55 58° W 19:04:51 10° NNW
METEOR-M 4.3 19:01:40 10° SSE 19:06:49 50° ENE 19:11:58 10° N
Cosmos 2297 3.8 19:02:25 10° NNW 19:08:09 83° WSW 19:13:53 10° SSE
Meteor 1-28 Rocket 3.9 19:04:36 10° N 19:08:14 54° WNW 19:11:53 10° SSW
BREEZE-M DEB (TANK) 3.7 19:05:01 10° SSW 19:08:15 41° ESE 19:15:09 15° NE
Cosmos 292 Rocket 3.7 19:03:57 10° S 19:08:39 71° ESE 19:13:23 10° NNE
Genesis I 3.6 19:07:01 10° S 19:10:43 42° ESE 19:12:42 23° NE
NOAA 12 4.1 19:06:32 10° SSE 19:11:40 61° ENE 19:16:51 10° N
Cosmos 1707 Rocket 3.8 19:09:53 10° N 19:14:13 72° W 19:18:32 10° S
COSMO-SKYMED 1 4.4 19:12:58 10° N 19:16:48 31° WNW 19:20:38 10° SW
Cosmos 2112 Rocket 4.0 19:13:06 10° S 19:18:12 61° ESE 19:23:17 10° NNE
OTV 4 3.7 19:17:40 10° SW 19:18:31 11° SW 19:19:21 10° SSW
Cosmos 1943 3.4 19:19:51 10° S 19:25:14 47° ESE 19:28:35 22° NE
Cosmos 1869 3.2 19:23:09 10° N 19:27:11 70° E 19:31:11 10° SSE
Cosmos 1933 Rocket 3.4 19:25:44 10° S 19:30:09 79° E 19:34:37 10° N
Lacrosse 4 Rocket 1.3 19:27:41 10° NNW 19:31:38 52° ENE 19:33:02 34° ESE
Resurs 01 Rocket 2.0 19:30:39 10° SE 19:34:54 40° ENE 19:38:58 10° N
Helios 1B rocket 3.6 19:37:11 28° SE 19:37:11 28° SE 19:39:39 10° SSE
TIMED 4.3 19:31:42 10° NNW 19:36:05 78° ENE 19:40:25 10° SSE
SL-19 R/B 4.3 19:32:41 10° SSE 19:38:30 59° ENE 19:44:02 10° N
CCE 1 Rocket 4.0 19:36:15 10° WSW 19:40:21 63° SSE 19:42:17 38° E
H-2A ROCKET BODY 3.0 19:17:35 10° W 19:42:47 83° S 19:45:25 36° E
FREGAT/IRIS 3.5 19:42:12 10° S 19:45:09 50° W 19:48:08 10° NNW
Iridium 4 Rocket 3.8 19:42:42 10° SSW 19:47:09 53° W 19:51:19 10° N
Cosmos 1627 Rocket 4.4 19:41:13 10° S 19:47:26 88° E 19:53:36 10° N
Cosmos 1655 Rocket 3.9 19:41:59 10° S 19:48:17 66° E 19:54:35 10° NNE
Spot 2 Rocket 3.4 19:44:03 10° SSE 19:48:59 60° ENE 19:53:57 10° N
ISS -1.5 19:47:55 10° SSW 19:49:29 24° S 19:49:29 24° S
Cosmos 1470 Rocket 4.5 19:47:37 10° SSW 19:51:50 48° W 19:56:01 10° N
Tiangong 1 3.7 19:53:11 10° WNW 19:54:18 14° NW 19:54:18 14° NW
Cosmos 1242 Rocket 3.1 19:53:50 10° NNW 19:57:14 53° W 20:00:39 10° S
NOSS 3-1 (A) 3.2 19:52:28 10° SSW 19:58:07 84° ESE 20:00:05 45° NE
ERBS 3.7 19:57:01 10° SSW 19:59:07 34° SSW 19:59:07 34° SSW
FengYun 1-2 T 4.1 19:55:04 10° SSE 20:00:39 90° NNW 20:06:12 10° NNW
ATLAS 2AS CENTAUR R/B 4.3 19:59:59 10° SSE 20:02:22 18° SE 20:02:22 18° SE
Cosmos 2026 Rocket 4.3 20:06:21 10° SSW 20:12:29 63° W 20:18:35 10° N
Haruka 4.4 20:09:52 10° W 20:15:09 88° N 20:20:46 41° E
Cosmos 2369 Rocket 4.0 20:27:21 10° NNW 20:28:57 19° NNW 20:28:57 19° NNW
ALOS 3.9 20:32:27 10° SSW 20:36:35 31° W 20:40:44 10° NW
USA 215 3.7 20:44:05 52° NNW 20:44:05 52° NNW 20:48:55 10° NW
ATLAS 2A CENTAUR R/B 4.0 20:45:41 10° WSW 20:46:28 19° SW 20:46:28 19° SW
CZ-3A R/B 3.9 20:53:17 10° NW 20:58:08 60° SW 21:11:52 10° SSE
